This demonstration page uses our WeatherBlox Daily Observations layout. Learn more.

Left ArrowRight Arrow

Hourly Observations for October 13, 2015

Temp ( °F °C ) Dew Point ( °F °C ) Humidity (%) Winds ( mph kmh ) Pressure ( in mb ) Visibility ( mi km ) Precip ( " mm )
12:53 am 00:53 Clear 62 16.7 40 4.4 44 44 Calm 29.97 1015 10 16 0.00 0.00
1:53 am 01:53 Clear 61 16.1 40 4.4 46 46 Calm 29.98 1015 10 16 0.00 0.00
2:53 am 02:53 Clear 58 14.4 42 5.6 56 56 Calm 29.99 1016 10 16 0.00 0.00
3:53 am 03:53 Clear 57 13.9 39 3.9 51 51 Calm 29.98 1015 10 16 0.00 0.00
4:53 am 04:53 Clear 57 13.9 42 5.6 58 58 Calm 29.98 1015 10 16 0.00 0.00
5:53 am 05:53 Clear 56 13.3 41 5 57 57 Calm 29.99 1016 10 16 0.00 0.00
6:53 am 06:53 Clear 54 12.2 42 5.6 64 64 Calm 30.01 1016 10 16 0.00 0.00
7:53 am 07:53 Sunny 55 12.8 41 5 59 59 Calm 30.01 1016 10 16 0.00 0.00
8:53 am 08:53 Sunny 62 16.7 42 5.6 48 48 Calm 30.03 1017 10 16 0.00 0.00
9:53 am 09:53 Sunny 73 22.8 41 5 32 32 Calm 30.03 1017 10 16 0.00 0.00
10:53 am 10:53 Sunny 83 28.3 38 3.3 20 20 VRB 3 6 30.02 1017 10 16 0.00 0.00
11:53 am 11:53 Sunny 88 31.1 37 2.8 16 16 N 3 6 30.00 1016 10 16 0.00 0.00
12:53 pm 12:53 Sunny 92 33.3 36 2.2 14 14 Calm 29.98 1015 9 14 0.00 0.00
1:53 pm 13:53 Sunny 94 34.4 38 3.3 14 14 W 5 7 29.96 1014 10 16 0.00 0.00
2:53 pm 14:53 Sunny 96 35.6 36 2.2 12 12 Calm 29.93 1014 10 16 0.00 0.00
4:53 pm 16:53 Sunny 96 35.6 36 2.2 12 12 S 6 9 29.91 1013 10 16 0.00 0.00
5:53 pm 17:53 Sunny 95 35 33 0.6 11 11 ESE 5 7 29.90 1013 10 16 0.00 0.00
6:53 pm 18:53 Clear 86 30 38 3.3 18 18 Calm 29.90 1013 10 16 0.00 0.00
7:53 pm 19:53 Clear 81 27.2 41 5 24 24 Calm 29.93 1013 10 16 0.00 0.00
8:53 pm 20:53 Clear 74 23.3 41 5 31 31 N 3 6 29.94 1014 10 16 0.00 0.00
9:53 pm 21:53 Clear 71 21.7 40 4.4 32 32 NNW 3 6 29.96 1014 10 16 0.00 0.00
10:53 pm 22:53 Clear 68 20 41 5 38 38 Calm 29.96 1015 10 16 0.00 0.00
11:53 pm 23:53 Clear 65 18.3 39 3.9 39 39 Calm 29.97 1015 10 16 0.00 0.00

Powered by AerisWeather